Location: Chuathbaluk
(61.5726°N, 159.2454°W)
Time: 12:52:50
(UTC+00:00)

NOAA 19 - Visible Passes

Search period start: 16 January 2021 00:00
Search period end: 26 January 2021 00:00
Orbit: 841 x 861 km, 99.2° (Epoch: 16 January)

Date Brightness Start Highest point End Pass type
(mag) Time Alt. Az. Time Alt. Az. Time Alt. Az.
16 Jan 5.5 02:49:48 10° SE 02:55:03 45° NE 03:00:17 10° NNW visible
16 Jan 6.0 04:30:13 10° S 04:35:41 56° WSW 04:41:10 10° NNW visible
16 Jan 8.1 06:14:24 10° WSW 06:17:36 15° W 06:20:47 10° NW visible
16 Jan 7.3 16:41:18 10° NNE 16:46:06 29° E 16:50:52 10° SSE visible
16 Jan 5.2 18:21:48 10° NNE 18:27:21 79° WNW 18:32:50 10° SSW visible
17 Jan 5.7 04:18:21 10° S 04:23:53 65° WSW 04:29:25 10° NNW visible
17 Jan 7.9 06:01:54 10° SW 06:05:37 18° W 06:09:22 10° NW visible
17 Jan 7.5 16:29:39 10° NE 16:34:12 25° E 16:38:42 10° SE visible
17 Jan 5.3 18:10:01 10° NNE 18:15:36 90° WNW 18:21:07 10° SSW visible
18 Jan 5.5 04:06:32 10° SSE 04:12:06 76° WSW 04:17:41 10° NNW visible
18 Jan 7.7 05:49:33 10° SW 05:53:41 21° W 05:57:50 10° NW visible
18 Jan 7.8 16:18:04 10° NE 16:22:17 22° E 16:26:27 10° SE visible
18 Jan 5.4 17:58:17 10° NNE 18:03:50 79° ESE 18:09:20 10° SSW visible
19 Jan 5.3 03:54:45 10° SSE 04:00:20 87° WSW 04:05:55 10° NNW visible
19 Jan 7.5 05:37:17 10° SW 05:41:46 24° W 05:46:15 10° NW visible
19 Jan 8.0 16:06:32 10° NE 16:10:20 19° E 16:14:07 10° SE visible
19 Jan 5.7 17:46:31 10° NNE 17:52:03 68° ESE 17:57:31 10° S visible
20 Jan 5.2 03:43:00 10° SSE 03:48:35 82° ENE 03:54:09 10° NNW visible
20 Jan 7.3 05:25:06 10° SSW 05:29:51 28° W 05:34:37 10° NNW visible
20 Jan 8.2 15:55:04 10° NE 15:58:22 16° E 16:01:39 10° ESE visible
20 Jan 5.9 17:34:46 10° NNE 17:40:15 58° ESE 17:45:39 10° S visible
21 Jan 5.2 03:31:19 10° SSE 03:36:50 72° ENE 03:42:22 10° NNW visible
21 Jan 7.0 05:12:59 10° SSW 05:17:58 33° W 05:22:58 10° NNW visible
21 Jan 8.3 15:43:45 10° NE 15:46:23 13° ENE 15:49:00 10° ESE visible
21 Jan 6.2 17:23:02 10° NNE 17:28:26 50° E 17:33:45 10° S visible
22 Jan 5.3 03:19:39 10° SE 03:25:07 62° ENE 03:30:35 10° NNW visible
22 Jan 6.7 05:00:57 10° SSW 05:06:06 38° W 05:11:17 10° NNW visible
22 Jan 8.5 15:32:46 10° ENE 15:34:22 11° ENE 15:35:59 10° E visible
22 Jan 6.6 17:11:20 10° NNE 17:16:36 43° E 17:21:47 10° S visible
23 Jan 5.4 03:08:01 10° SE 03:13:25 54° ENE 03:18:48 10° NNW visible
23 Jan 6.4 04:48:57 10° S 04:54:15 45° W 04:59:34 10° NNW visible
23 Jan 8.4 06:34:23 10° W 06:36:24 12° WNW 06:38:25 10° NW visible
23 Jan 6.9 16:59:38 10° NNE 17:04:44 37° E 17:09:46 10° SSE visible
24 Jan 6.1 04:37:01 10° S 04:42:26 52° WSW 04:47:50 10° NNW visible
24 Jan 8.2 06:21:32 10° WSW 06:24:25 14° W 06:27:17 10° NW visible
24 Jan 7.2 16:47:58 10° NNE 16:52:51 31° E 16:57:42 10° SSE visible
25 Jan 5.8 04:25:07 10° S 04:30:37 61° WSW 04:36:07 10° NNW visible
25 Jan 8.1 06:08:57 10° WSW 06:12:26 17° W 06:15:54 10° NW visible
25 Jan 7.4 16:36:19 10° NNE 16:40:58 27° E 16:45:34 10° SSE visible
25 Jan 5.2 18:16:45 10° NNE 18:22:17 85° WNW 18:27:47 10° SSW visible
